Location: Nag� el Ma?a??a
(24.0667°N, 32.8833°E)
Time: 20:10:37
(UTC+00:00)

Cosmos 2369 Rocket - Visible Passes

Search period start: 16 January 2022 00:00
Search period end: 26 January 2022 00:00
Orbit: 828 x 853 km, 71.0° (Epoch: 15 January)

Date Brightness Start Highest point End Pass type
(mag) Time Alt. Az. Time Alt. Az. Time Alt. Az.
16 Jan 4.5 02:59:13 10° NNE 03:03:28 21° ENE 03:07:42 10° ESE visible
16 Jan 3.6 15:58:03 10° SE 16:01:30 17° E 16:04:19 12° ENE visible
16 Jan 3.2 17:39:50 10° SW 17:45:04 41° WNW 17:46:12 37° NW visible
17 Jan 4.6 02:43:59 10° NNE 02:48:04 20° ENE 02:52:07 10° ESE visible
17 Jan 3.7 15:42:58 10° SE 15:46:09 15° E 15:49:19 10° ENE visible
17 Jan 3.1 17:24:22 10° SW 17:29:41 44° WNW 17:32:23 26° NNW visible
18 Jan 4.6 02:28:47 10° NNE 02:32:39 18° ENE 02:36:30 10° ESE visible
18 Jan 3.0 17:08:55 10° SW 17:14:17 48° WNW 17:18:32 16° N visible
19 Jan 4.7 02:13:35 10° NNE 02:17:15 17° ENE 02:20:53 10° ESE visible
19 Jan 2.6 03:55:58 10° NNW 04:01:21 44° WSW 04:06:43 10° S visible
19 Jan 2.9 16:53:28 10° SW 16:58:53 51° WNW 17:04:22 10° N visible
20 Jan 4.7 01:58:25 10° NNE 02:01:50 16° ENE 02:05:13 10° E visible
20 Jan 2.5 03:40:32 10° NNW 03:45:59 48° WSW 03:51:25 10° S visible
20 Jan 2.8 16:38:02 10° SSW 16:43:30 55° WNW 16:49:02 10° N visible
21 Jan 4.8 01:43:47 11° NE 01:46:25 15° ENE 01:49:32 10° E visible
21 Jan 2.4 03:25:38 13° NNW 03:30:37 51° WSW 03:36:06 10° S visible
21 Jan 2.7 16:22:36 10° SSW 16:28:06 60° WNW 16:33:41 10° N visible
22 Jan 4.8 01:29:51 13° NE 01:30:59 14° ENE 01:33:48 10° E visible
22 Jan 2.3 03:11:43 22° NW 03:15:15 56° WSW 03:20:47 10° S visible
22 Jan 2.6 16:07:11 10° SSW 16:12:43 65° WNW 16:18:20 10° N visible
23 Jan 4.9 01:16:00 13° ENE 01:16:00 13° ENE 01:18:00 10° E visible
23 Jan 2.2 02:57:53 39° NW 02:59:52 60° WSW 03:05:26 10° S visible
23 Jan 2.6 15:51:46 10° SSW 15:57:20 70° WNW 16:02:58 10° NNE visible
24 Jan 2.1 02:44:03 62° W 02:44:29 65° WSW 02:50:06 10° S visible
25 Jan 2.5 02:30:15 55° SSW 02:30:15 55° SSW 02:34:45 10° S visible
